Year,Month,Day,Hour,Minute,Value (Times are PST for temperature in C)
2009,08,18,00,00,16.70
2009,08,18,00,01,16.70
2009,08,18,00,02,16.70
2009,08,18,00,03,16.60
2009,08,18,00,04,16.60
2009,08,18,00,05,16.60
2009,08,18,00,06,16.50
2009,08,18,00,07,16.50
2009,08,18,00,08,16.50
2009,08,18,00,09,16.40
2009,08,18,00,10,16.40
2009,08,18,00,11,16.40
2009,08,18,00,12,16.40
2009,08,18,00,13,16.40
2009,08,18,00,14,16.40
2009,08,18,00,15,16.30
2009,08,18,00,16,16.30
2009,08,18,00,17,16.30
2009,08,18,00,18,16.30
2009,08,18,00,19,16.30
2009,08,18,00,20,16.30
2009,08,18,00,21,16.30
2009,08,18,00,22,16.30
2009,08,18,00,23,16.30
2009,08,18,00,24,16.30
2009,08,18,00,25,16.30
2009,08,18,00,26,16.30
2009,08,18,00,27,16.20
2009,08,18,00,28,16.20
2009,08,18,00,29,16.20
2009,08,18,00,30,16.20
2009,08,18,00,31,16.20
2009,08,18,00,32,16.10
2009,08,18,00,33,16.10
2009,08,18,00,34,16.10
2009,08,18,00,35,16.10
2009,08,18,00,36,16.10
2009,08,18,00,37,16.10
2009,08,18,00,38,16.10
2009,08,18,00,39,16.10
2009,08,18,00,40,16.00
2009,08,18,00,41,16.00
2009,08,18,00,42,16.00
2009,08,18,00,43,16.00
2009,08,18,00,44,16.00
2009,08,18,00,45,15.90
2009,08,18,00,46,15.90
2009,08,18,00,47,15.90
2009,08,18,00,48,15.90
2009,08,18,00,49,15.90
2009,08,18,00,50,15.90
2009,08,18,00,51,15.90
2009,08,18,00,52,15.80
2009,08,18,00,53,15.80
2009,08,18,00,54,15.80
2009,08,18,00,55,15.80
2009,08,18,00,56,15.80
2009,08,18,00,57,15.80
2009,08,18,00,58,15.80
2009,08,18,00,59,15.80
2009,08,18,01,00,15.80
2009,08,18,01,01,15.80
2009,08,18,01,02,15.80
2009,08,18,01,03,15.70
2009,08,18,01,04,15.70
2009,08,18,01,05,15.70
2009,08,18,01,06,15.70
2009,08,18,01,07,15.70
2009,08,18,01,08,15.70
2009,08,18,01,09,15.60
2009,08,18,01,10,15.60
2009,08,18,01,11,15.60
2009,08,18,01,12,15.60
2009,08,18,01,13,15.50
2009,08,18,01,14,15.50
2009,08,18,01,15,15.50
2009,08,18,01,16,15.50
2009,08,18,01,17,15.50
2009,08,18,01,18,15.50
2009,08,18,01,19,15.40
2009,08,18,01,20,15.40
2009,08,18,01,21,15.40
2009,08,18,01,22,15.40
2009,08,18,01,23,15.40
2009,08,18,01,24,15.40
2009,08,18,01,25,15.40
2009,08,18,01,26,15.40
2009,08,18,01,27,15.40
2009,08,18,01,28,15.40
2009,08,18,01,29,15.30
2009,08,18,01,30,15.30
2009,08,18,01,31,15.30
2009,08,18,01,32,15.30
2009,08,18,01,33,15.30
2009,08,18,01,34,15.30
2009,08,18,01,35,15.30
2009,08,18,01,36,15.30
2009,08,18,01,37,15.30
2009,08,18,01,38,15.30
2009,08,18,01,39,15.30
2009,08,18,01,40,15.30
2009,08,18,01,41,15.30
2009,08,18,01,42,15.30
2009,08,18,01,43,15.30
2009,08,18,01,44,15.30
2009,08,18,01,45,15.30
2009,08,18,01,46,15.30
2009,08,18,01,47,15.30
2009,08,18,01,48,15.30
2009,08,18,01,49,15.30
2009,08,18,01,50,15.30
2009,08,18,01,51,15.30
2009,08,18,01,52,15.30
2009,08,18,01,53,15.30
2009,08,18,01,54,15.30
2009,08,18,01,55,15.30
2009,08,18,01,56,15.30
2009,08,18,01,57,15.30
2009,08,18,01,58,15.30
2009,08,18,01,59,15.30
2009,08,18,02,00,15.30
2009,08,18,02,01,15.30
2009,08,18,02,02,15.20
2009,08,18,02,03,15.20
2009,08,18,02,04,15.20
2009,08,18,02,05,15.20
2009,08,18,02,06,15.20
2009,08,18,02,07,15.20
2009,08,18,02,08,15.20
2009,08,18,02,09,15.20
2009,08,18,02,10,15.20
2009,08,18,02,11,15.20
2009,08,18,02,12,15.20
2009,08,18,02,13,15.20
2009,08,18,02,14,15.20
2009,08,18,02,15,15.20
2009,08,18,02,16,15.10
2009,08,18,02,17,15.10
2009,08,18,02,18,15.10
2009,08,18,02,19,15.10
2009,08,18,02,20,15.00
2009,08,18,02,21,15.00
2009,08,18,02,22,15.00
2009,08,18,02,23,15.00
2009,08,18,02,24,15.00
2009,08,18,02,25,15.00
2009,08,18,02,26,15.00
2009,08,18,02,27,15.00
2009,08,18,02,28,15.00
2009,08,18,02,29,15.00
2009,08,18,02,30,15.00
2009,08,18,02,31,15.00
2009,08,18,02,32,15.00
2009,08,18,02,33,15.00
2009,08,18,02,34,15.00
2009,08,18,02,35,15.00
2009,08,18,02,36,15.00
2009,08,18,02,37,15.00
2009,08,18,02,38,15.00
2009,08,18,02,39,15.00
2009,08,18,02,40,15.00
2009,08,18,02,41,15.00
2009,08,18,02,42,15.00
2009,08,18,02,43,15.00
2009,08,18,02,44,15.00
2009,08,18,02,45,15.00
2009,08,18,02,46,15.00
2009,08,18,02,47,15.00
2009,08,18,02,48,15.00
2009,08,18,02,49,15.00
2009,08,18,02,50,15.00
2009,08,18,02,51,15.00
2009,08,18,02,52,15.00
2009,08,18,02,53,15.00
2009,08,18,02,54,15.00
2009,08,18,02,55,15.00
2009,08,18,02,56,15.00
2009,08,18,02,57,15.00
2009,08,18,02,58,15.00
2009,08,18,02,59,14.90
2009,08,18,03,00,14.90
2009,08,18,03,01,14.80
2009,08,18,03,02,14.80
2009,08,18,03,03,14.80
2009,08,18,03,04,14.80
2009,08,18,03,05,14.80
2009,08,18,03,06,14.80
2009,08,18,03,07,14.80
2009,08,18,03,08,14.80
2009,08,18,03,09,14.80
2009,08,18,03,10,14.80
2009,08,18,03,11,14.80
2009,08,18,03,12,14.80
2009,08,18,03,13,14.80
2009,08,18,03,14,14.70
2009,08,18,03,15,14.70
2009,08,18,03,16,14.70
2009,08,18,03,17,14.70
2009,08,18,03,18,14.70
2009,08,18,03,19,14.70
2009,08,18,03,20,14.60
2009,08,18,03,21,14.60
2009,08,18,03,22,14.60
2009,08,18,03,23,14.60
2009,08,18,03,24,14.60
2009,08,18,03,25,14.60
2009,08,18,03,26,14.60
2009,08,18,03,27,14.60
2009,08,18,03,28,14.60
2009,08,18,03,29,14.60
2009,08,18,03,30,14.60
2009,08,18,03,31,14.60
2009,08,18,03,32,14.60
2009,08,18,03,33,14.60
2009,08,18,03,34,14.60
2009,08,18,03,35,14.60
2009,08,18,03,36,14.60
2009,08,18,03,37,14.60
2009,08,18,03,38,14.60
2009,08,18,03,39,14.60
2009,08,18,03,40,14.60
2009,08,18,03,41,14.60
2009,08,18,03,42,14.60
2009,08,18,03,43,14.60
2009,08,18,03,44,14.60
2009,08,18,03,45,14.60
2009,08,18,03,46,14.60
2009,08,18,03,47,14.70
2009,08,18,03,48,14.70
2009,08,18,03,49,14.70
2009,08,18,03,50,14.70
2009,08,18,03,51,14.70
2009,08,18,03,52,14.80
2009,08,18,03,53,14.80
2009,08,18,03,54,14.80
2009,08,18,03,55,14.80
2009,08,18,03,56,14.70
2009,08,18,03,57,14.70
2009,08,18,03,58,14.70
2009,08,18,03,59,14.70
2009,08,18,04,00,14.70
2009,08,18,04,01,14.70
2009,08,18,04,02,14.70
2009,08,18,04,03,14.70
2009,08,18,04,04,14.70
2009,08,18,04,05,14.70
2009,08,18,04,06,14.70
2009,08,18,04,07,14.70
2009,08,18,04,08,14.70
2009,08,18,04,09,14.70
2009,08,18,04,10,14.60
2009,08,18,04,11,14.60
2009,08,18,04,12,14.60
2009,08,18,04,13,14.60
2009,08,18,04,14,14.60
2009,08,18,04,15,14.60
2009,08,18,04,16,14.60
2009,08,18,04,17,14.60
2009,08,18,04,18,14.60
2009,08,18,04,19,14.50
2009,08,18,04,20,14.50
2009,08,18,04,21,14.50
2009,08,18,04,22,14.40
2009,08,18,04,23,14.40
2009,08,18,04,24,14.40
2009,08,18,04,25,14.40
2009,08,18,04,26,14.40
2009,08,18,04,27,14.40
2009,08,18,04,28,14.40
2009,08,18,04,29,14.30
2009,08,18,04,30,14.30
2009,08,18,04,31,14.30
2009,08,18,04,32,14.30
2009,08,18,04,33,14.30
2009,08,18,04,34,14.30
2009,08,18,04,35,14.30
2009,08,18,04,36,14.20
2009,08,18,04,37,14.20
2009,08,18,04,38,14.20
2009,08,18,04,39,14.20
2009,08,18,04,40,14.20
2009,08,18,04,41,14.20
2009,08,18,04,42,14.20
2009,08,18,04,43,14.20
2009,08,18,04,44,14.20
2009,08,18,04,45,14.20
2009,08,18,04,46,14.20
2009,08,18,04,47,14.10
2009,08,18,04,48,14.10
2009,08,18,04,49,14.10
2009,08,18,04,50,14.10
2009,08,18,04,51,14.10
2009,08,18,04,52,14.10
2009,08,18,04,53,14.00
2009,08,18,04,54,14.00
2009,08,18,04,55,14.00
2009,08,18,04,56,14.00
2009,08,18,04,57,14.00
2009,08,18,04,58,14.00
2009,08,18,04,59,14.00
2009,08,18,05,00,14.00
2009,08,18,05,01,13.90
2009,08,18,05,02,13.90
2009,08,18,05,03,13.90
2009,08,18,05,04,13.90
2009,08,18,05,05,13.90
2009,08,18,05,06,13.90
2009,08,18,05,07,13.90
2009,08,18,05,08,13.80
2009,08,18,05,09,13.80
2009,08,18,05,10,13.80
2009,08,18,05,11,13.80
2009,08,18,05,12,13.80
2009,08,18,05,13,13.80
2009,08,18,05,14,13.80
2009,08,18,05,15,13.90
2009,08,18,05,16,13.90
2009,08,18,05,17,13.80
2009,08,18,05,18,13.80
2009,08,18,05,19,13.80
2009,08,18,05,20,13.80
2009,08,18,05,21,13.80
2009,08,18,05,22,13.90
2009,08,18,05,23,13.90
2009,08,18,05,24,13.90
2009,08,18,05,25,13.80
2009,08,18,05,26,13.80
2009,08,18,05,27,13.80
2009,08,18,05,28,13.80
2009,08,18,05,29,13.80
2009,08,18,05,30,13.80
2009,08,18,05,31,13.80
2009,08,18,05,32,13.80
2009,08,18,05,33,13.80
2009,08,18,05,34,13.80
2009,08,18,05,35,13.80
2009,08,18,05,36,13.80
2009,08,18,05,37,13.80
2009,08,18,05,38,13.80
2009,08,18,05,39,13.80
2009,08,18,05,40,13.80
2009,08,18,05,41,13.80
2009,08,18,05,42,13.80
2009,08,18,05,43,13.80
2009,08,18,05,44,13.80
2009,08,18,05,45,13.80
2009,08,18,05,46,13.80
2009,08,18,05,47,13.70
2009,08,18,05,48,13.70
2009,08,18,05,49,13.70
2009,08,18,05,50,13.80
2009,08,18,05,51,13.80
2009,08,18,05,52,13.80
2009,08,18,05,53,13.80
2009,08,18,05,54,13.80
2009,08,18,05,55,13.80
2009,08,18,05,56,13.80
2009,08,18,05,57,13.80
2009,08,18,05,58,13.80
2009,08,18,05,59,13.80
2009,08,18,06,00,13.80
2009,08,18,06,01,13.80
2009,08,18,06,02,13.80
2009,08,18,06,03,13.80
2009,08,18,06,04,13.70
2009,08,18,06,05,13.70
2009,08,18,06,06,13.70
2009,08,18,06,07,13.70
2009,08,18,06,08,13.70
2009,08,18,06,09,13.70
2009,08,18,06,10,13.70
2009,08,18,06,11,13.70
2009,08,18,06,12,13.70
2009,08,18,06,13,13.70
2009,08,18,06,14,13.80
2009,08,18,06,15,13.70
2009,08,18,06,16,13.70
2009,08,18,06,17,13.70
2009,08,18,06,18,13.70
2009,08,18,06,19,13.70
2009,08,18,06,20,13.70
2009,08,18,06,21,13.70
2009,08,18,06,22,13.70
2009,08,18,06,23,13.70
2009,08,18,06,24,13.70
2009,08,18,06,25,13.70
2009,08,18,06,26,13.70
2009,08,18,06,27,13.70
2009,08,18,06,28,13.70
2009,08,18,06,29,13.80
2009,08,18,06,30,13.80
2009,08,18,06,31,13.80
2009,08,18,06,32,13.80
2009,08,18,06,33,13.80
2009,08,18,06,34,13.80
2009,08,18,06,35,13.80
2009,08,18,06,36,13.80
2009,08,18,06,37,13.80
2009,08,18,06,38,13.80
2009,08,18,06,39,13.80
2009,08,18,06,40,13.80
2009,08,18,06,41,13.80
2009,08,18,06,42,13.80
2009,08,18,06,43,13.90
2009,08,18,06,44,13.90
2009,08,18,06,45,13.90
2009,08,18,06,46,14.00
2009,08,18,06,47,14.00
2009,08,18,06,48,14.00
2009,08,18,06,49,14.10
2009,08,18,06,50,14.10
2009,08,18,06,51,14.10
2009,08,18,06,52,14.10
2009,08,18,06,53,14.10
2009,08,18,06,54,14.10
2009,08,18,06,55,14.10
2009,08,18,06,56,14.20
2009,08,18,06,57,14.20
2009,08,18,06,58,14.20
2009,08,18,06,59,14.20
2009,08,18,07,00,14.20
2009,08,18,07,01,14.20
2009,08,18,07,02,14.20
2009,08,18,07,03,14.20
2009,08,18,07,04,14.20
2009,08,18,07,05,14.20
2009,08,18,07,06,14.20
2009,08,18,07,07,14.20
2009,08,18,07,08,14.20
2009,08,18,07,09,14.20
2009,08,18,07,10,14.20
2009,08,18,07,11,14.20
2009,08,18,07,12,14.20
2009,08,18,07,13,14.20
2009,08,18,07,14,14.20
2009,08,18,07,15,14.20
2009,08,18,07,16,14.20
2009,08,18,07,17,14.20
2009,08,18,07,18,14.30
2009,08,18,07,19,14.30
2009,08,18,07,20,14.30
2009,08,18,07,21,14.30
2009,08,18,07,22,14.30
2009,08,18,07,23,14.30
2009,08,18,07,24,14.40
2009,08,18,07,25,14.40
2009,08,18,07,26,14.40
2009,08,18,07,27,14.40
2009,08,18,07,28,14.40
2009,08,18,07,29,14.40
2009,08,18,07,30,14.50
2009,08,18,07,31,14.50
2009,08,18,07,32,14.50
2009,08,18,07,33,14.60
2009,08,18,07,34,14.60
2009,08,18,07,35,14.60
2009,08,18,07,36,14.60
2009,08,18,07,37,14.70
2009,08,18,07,38,14.70
2009,08,18,07,39,14.70
2009,08,18,07,40,14.70
2009,08,18,07,41,14.80
2009,08,18,07,42,14.80
2009,08,18,07,43,14.80
2009,08,18,07,44,14.80
2009,08,18,07,45,14.80
2009,08,18,07,46,14.90
2009,08,18,07,47,14.90
2009,08,18,07,48,15.00
2009,08,18,07,49,15.00
2009,08,18,07,50,15.00
2009,08,18,07,51,15.00
2009,08,18,07,52,15.00
2009,08,18,07,53,15.00
2009,08,18,07,54,15.00
2009,08,18,07,55,15.00
2009,08,18,07,56,15.00
2009,08,18,07,57,15.00
2009,08,18,07,58,15.10
2009,08,18,07,59,15.20
2009,08,18,08,00,15.20
2009,08,18,08,01,15.30
2009,08,18,08,02,15.30
2009,08,18,08,03,15.30
2009,08,18,08,04,15.40
2009,08,18,08,05,15.40
2009,08,18,08,06,15.40
2009,08,18,08,07,15.50
2009,08,18,08,08,15.50
2009,08,18,08,09,15.60
2009,08,18,08,10,15.60
2009,08,18,08,11,15.60
2009,08,18,08,12,15.70
2009,08,18,08,13,15.70
2009,08,18,08,14,15.80
2009,08,18,08,15,15.80
2009,08,18,08,16,15.80
2009,08,18,08,17,15.90
2009,08,18,08,18,15.90
2009,08,18,08,19,16.00
2009,08,18,08,20,16.00
2009,08,18,08,21,16.10
2009,08,18,08,22,16.10
2009,08,18,08,23,16.10
2009,08,18,08,24,16.20
2009,08,18,08,25,16.20
2009,08,18,08,26,16.20
2009,08,18,08,27,16.30
2009,08,18,08,28,16.30
2009,08,18,08,29,16.30
2009,08,18,08,30,16.40
2009,08,18,08,31,16.40
2009,08,18,08,32,16.40
2009,08,18,08,33,16.50
2009,08,18,08,34,16.50
2009,08,18,08,35,16.50
2009,08,18,08,36,16.60
2009,08,18,08,37,16.60
2009,08,18,08,38,16.70
2009,08,18,08,39,16.70
2009,08,18,08,40,16.70
2009,08,18,08,41,16.80
2009,08,18,08,42,16.80
2009,08,18,08,43,16.90
2009,08,18,08,44,17.00
2009,08,18,08,45,17.10
2009,08,18,08,46,17.20
2009,08,18,08,47,17.30
2009,08,18,08,48,17.40
2009,08,18,08,49,17.50
2009,08,18,08,50,17.60
2009,08,18,08,51,17.60
2009,08,18,08,52,17.70
2009,08,18,08,53,17.70
2009,08,18,08,54,17.70
2009,08,18,08,55,17.80
2009,08,18,08,56,17.80
2009,08,18,08,57,17.90
2009,08,18,08,58,18.00
2009,08,18,08,59,18.00
2009,08,18,09,00,18.10
2009,08,18,09,01,18.10
2009,08,18,09,02,18.20
2009,08,18,09,03,18.20
2009,08,18,09,04,18.30
2009,08,18,09,05,18.30
2009,08,18,09,06,18.30
2009,08,18,09,07,18.30
2009,08,18,09,08,18.40
2009,08,18,09,09,18.40
2009,08,18,09,10,18.40
2009,08,18,09,11,18.50
2009,08,18,09,12,18.50
2009,08,18,09,13,18.60
2009,08,18,09,14,18.60
2009,08,18,09,15,18.60
2009,08,18,09,16,18.70
2009,08,18,09,17,18.70
2009,08,18,09,18,18.80
2009,08,18,09,19,18.80
2009,08,18,09,20,18.90
2009,08,18,09,21,18.90
2009,08,18,09,22,19.00
2009,08,18,09,23,19.00
2009,08,18,09,24,19.00
2009,08,18,09,25,19.10
2009,08,18,09,26,19.20
2009,08,18,09,27,19.20
2009,08,18,09,28,19.30
2009,08,18,09,29,19.30
2009,08,18,09,30,19.40
2009,08,18,09,31,19.40
2009,08,18,09,32,19.50
2009,08,18,09,33,19.60
2009,08,18,09,34,19.60
2009,08,18,09,35,19.70
2009,08,18,09,36,19.80
2009,08,18,09,37,19.80
2009,08,18,09,38,19.80
2009,08,18,09,39,19.80
2009,08,18,09,40,19.90
2009,08,18,09,41,19.90
2009,08,18,09,42,19.90
2009,08,18,09,43,19.90
2009,08,18,09,44,19.90
2009,08,18,09,45,19.90
2009,08,18,09,46,19.90
2009,08,18,09,47,19.90
2009,08,18,09,48,19.90
2009,08,18,09,49,19.90
2009,08,18,09,50,20.00
2009,08,18,09,51,20.00
2009,08,18,09,52,20.10
2009,08,18,09,53,20.10
2009,08,18,09,54,20.20
2009,08,18,09,55,20.30
2009,08,18,09,56,20.40
2009,08,18,09,57,20.50
2009,08,18,09,58,20.60
2009,08,18,09,59,20.70
2009,08,18,10,00,20.70
2009,08,18,10,01,20.80
2009,08,18,10,02,21.00
2009,08,18,10,03,21.10
2009,08,18,10,04,21.20
2009,08,18,10,05,21.30
2009,08,18,10,06,21.30
2009,08,18,10,07,21.40
2009,08,18,10,08,21.40
2009,08,18,10,09,21.30
2009,08,18,10,10,21.30
2009,08,18,10,11,21.30
2009,08,18,10,12,21.30
2009,08,18,10,13,21.30
2009,08,18,10,14,21.30
2009,08,18,10,15,21.30
2009,08,18,10,16,21.30
2009,08,18,10,17,21.40
2009,08,18,10,18,21.40
2009,08,18,10,19,21.40
2009,08,18,10,20,21.40
2009,08,18,10,21,21.50
2009,08,18,10,22,21.60
2009,08,18,10,23,21.70
2009,08,18,10,24,21.70
2009,08,18,10,25,21.80
2009,08,18,10,26,21.80
2009,08,18,10,27,21.90
2009,08,18,10,28,21.90
2009,08,18,10,29,22.00
2009,08,18,10,30,22.10
2009,08,18,10,31,22.10
2009,08,18,10,32,22.10
2009,08,18,10,33,22.10
2009,08,18,10,34,22.00
2009,08,18,10,35,21.90
2009,08,18,10,36,21.90
2009,08,18,10,37,21.80
2009,08,18,10,38,21.80
2009,08,18,10,39,21.90
2009,08,18,10,40,22.00
2009,08,18,10,41,22.00
2009,08,18,10,42,22.10
2009,08,18,10,43,22.20
2009,08,18,10,44,22.30
2009,08,18,10,45,22.40
2009,08,18,10,46,22.40
2009,08,18,10,47,22.50
2009,08,18,10,48,22.50
2009,08,18,10,49,22.60
2009,08,18,10,50,22.60
2009,08,18,10,51,22.60
2009,08,18,10,52,22.60
2009,08,18,10,53,22.60
2009,08,18,10,54,22.70
2009,08,18,10,55,22.70
2009,08,18,10,56,22.80
2009,08,18,10,57,22.90
2009,08,18,10,58,23.00
2009,08,18,10,59,23.00
2009,08,18,11,00,23.10
2009,08,18,11,01,23.20
2009,08,18,11,02,23.30
2009,08,18,11,03,23.30
2009,08,18,11,04,23.20
2009,08,18,11,05,23.20
2009,08,18,11,06,23.10
2009,08,18,11,07,23.10
2009,08,18,11,08,23.20
2009,08,18,11,09,23.20
2009,08,18,11,10,23.30
2009,08,18,11,11,23.40
2009,08,18,11,12,23.40
2009,08,18,11,13,23.50
2009,08,18,11,14,23.60
2009,08,18,11,15,23.70
2009,08,18,11,16,23.80
2009,08,18,11,17,23.80
2009,08,18,11,18,24.00
2009,08,18,11,19,24.00
2009,08,18,11,20,24.10
2009,08,18,11,21,24.20
2009,08,18,11,22,24.30
2009,08,18,11,23,24.30
2009,08,18,11,24,24.40
2009,08,18,11,25,24.50
2009,08,18,11,26,24.50
2009,08,18,11,27,24.60
2009,08,18,11,28,24.60
2009,08,18,11,29,24.60
2009,08,18,11,30,24.60
2009,08,18,11,31,24.60
2009,08,18,11,32,24.60
2009,08,18,11,33,24.60
2009,08,18,11,34,24.60
2009,08,18,11,35,24.70
2009,08,18,11,36,24.70
2009,08,18,11,37,24.80
2009,08,18,11,38,24.80
2009,08,18,11,39,24.80
2009,08,18,11,40,24.90
2009,08,18,11,41,24.90
2009,08,18,11,42,25.00
2009,08,18,11,43,25.00
2009,08,18,11,44,25.10
2009,08,18,11,45,25.10
2009,08,18,11,46,25.10
2009,08,18,11,47,25.10
2009,08,18,11,48,25.10
2009,08,18,11,49,25.00
2009,08,18,11,50,24.90
2009,08,18,11,51,24.90
2009,08,18,11,52,24.90
2009,08,18,11,53,24.90
2009,08,18,11,54,25.00
2009,08,18,11,55,25.00
2009,08,18,11,56,25.10
2009,08,18,11,57,25.20
2009,08,18,11,58,25.20
2009,08,18,11,59,25.30
2009,08,18,12,00,25.30
2009,08,18,12,01,25.40
2009,08,18,12,02,25.40
2009,08,18,12,03,25.30
2009,08,18,12,04,25.20
2009,08,18,12,05,25.10
2009,08,18,12,06,25.10
2009,08,18,12,07,25.10
2009,08,18,12,08,25.10
2009,08,18,12,09,25.10
2009,08,18,12,10,25.20
2009,08,18,12,11,25.20
2009,08,18,12,12,25.30
2009,08,18,12,13,25.30
2009,08,18,12,14,25.30
2009,08,18,12,15,25.30
2009,08,18,12,16,25.30
2009,08,18,12,17,25.20
2009,08,18,12,18,25.20
2009,08,18,12,19,25.20
2009,08,18,12,20,25.20
2009,08,18,12,21,25.20
2009,08,18,12,22,25.30
2009,08,18,12,23,25.40
2009,08,18,12,24,25.50
2009,08,18,12,25,25.50
2009,08,18,12,26,25.60
2009,08,18,12,27,25.60
2009,08,18,12,28,25.60
2009,08,18,12,29,25.80
2009,08,18,12,30,25.90
2009,08,18,12,31,26.00
2009,08,18,12,32,26.10
2009,08,18,12,33,26.20
2009,08,18,12,34,26.30
2009,08,18,12,35,26.40
2009,08,18,12,36,26.50
2009,08,18,12,37,26.50
2009,08,18,12,38,26.50
2009,08,18,12,39,26.40
2009,08,18,12,40,26.40
2009,08,18,12,41,26.40
2009,08,18,12,42,26.40
2009,08,18,12,43,26.30
2009,08,18,12,44,26.30
2009,08,18,12,45,26.40
2009,08,18,12,46,26.40
2009,08,18,12,47,26.40
2009,08,18,12,48,26.40
2009,08,18,12,49,26.40
2009,08,18,12,50,26.40
2009,08,18,12,51,26.30
2009,08,18,12,52,26.30
2009,08,18,12,53,26.30
2009,08,18,12,54,26.20
2009,08,18,12,55,26.30
2009,08,18,12,56,26.30
2009,08,18,12,57,26.30
2009,08,18,12,58,26.40
2009,08,18,12,59,26.50
2009,08,18,13,00,26.50
2009,08,18,13,01,26.60
2009,08,18,13,02,26.70
2009,08,18,13,03,26.80
2009,08,18,13,04,26.90
2009,08,18,13,05,26.90
2009,08,18,13,06,27.00
2009,08,18,13,07,27.00
2009,08,18,13,08,26.90
2009,08,18,13,09,26.80
2009,08,18,13,10,26.70
2009,08,18,13,11,26.70
2009,08,18,13,12,26.70
2009,08,18,13,13,26.80
2009,08,18,13,14,26.80
2009,08,18,13,15,26.90
2009,08,18,13,16,27.00
2009,08,18,13,17,27.00
2009,08,18,13,18,27.10
2009,08,18,13,19,27.10
2009,08,18,13,20,27.20
2009,08,18,13,21,27.20
2009,08,18,13,22,27.00
2009,08,18,13,23,26.90
2009,08,18,13,24,26.80
2009,08,18,13,25,26.70
2009,08,18,13,26,26.60
2009,08,18,13,27,26.60
2009,08,18,13,28,26.60
2009,08,18,13,29,26.60
2009,08,18,13,30,26.70
2009,08,18,13,31,26.80
2009,08,18,13,32,26.90
2009,08,18,13,33,27.00
2009,08,18,13,34,27.10
2009,08,18,13,35,27.20
2009,08,18,13,36,27.20
2009,08,18,13,37,27.10
2009,08,18,13,38,27.00
2009,08,18,13,39,26.90
2009,08,18,13,40,26.90
2009,08,18,13,41,26.80
2009,08,18,13,42,26.70
2009,08,18,13,43,26.70
2009,08,18,13,44,26.60
2009,08,18,13,45,26.60
2009,08,18,13,46,26.60
2009,08,18,13,47,26.60
2009,08,18,13,48,26.60
2009,08,18,13,49,26.60
2009,08,18,13,50,26.60
2009,08,18,13,51,26.60
2009,08,18,13,52,26.60
2009,08,18,13,53,26.70
2009,08,18,13,54,26.80
2009,08,18,13,55,26.80
2009,08,18,13,56,26.90
2009,08,18,13,57,26.90
2009,08,18,13,58,26.90
2009,08,18,13,59,27.00
2009,08,18,14,00,27.00
2009,08,18,14,01,27.00
2009,08,18,14,02,27.00
2009,08,18,14,03,27.00
2009,08,18,14,04,26.90
2009,08,18,14,05,26.90
2009,08,18,14,06,27.00
2009,08,18,14,07,27.10
2009,08,18,14,08,27.10
2009,08,18,14,09,27.20
2009,08,18,14,10,27.30
2009,08,18,14,11,27.30
2009,08,18,14,12,27.40
2009,08,18,14,13,27.30
2009,08,18,14,14,27.30
2009,08,18,14,15,27.30
2009,08,18,14,16,27.30
2009,08,18,14,17,27.30
2009,08,18,14,18,27.40
2009,08,18,14,19,27.40
2009,08,18,14,20,27.40
2009,08,18,14,21,27.40
2009,08,18,14,22,27.40
2009,08,18,14,23,27.40
2009,08,18,14,24,27.30
2009,08,18,14,25,27.30
2009,08,18,14,26,27.30
2009,08,18,14,27,27.30
2009,08,18,14,28,27.30
2009,08,18,14,29,27.30
2009,08,18,14,30,27.20
2009,08,18,14,31,27.10
2009,08,18,14,32,27.10
2009,08,18,14,33,27.10
2009,08,18,14,34,27.10
2009,08,18,14,35,27.10
2009,08,18,14,36,27.20
2009,08,18,14,37,27.30
2009,08,18,14,38,27.30
2009,08,18,14,39,27.40
2009,08,18,14,40,27.50
2009,08,18,14,41,27.60
2009,08,18,14,42,27.70
2009,08,18,14,43,27.80
2009,08,18,14,44,27.90
2009,08,18,14,45,28.00
2009,08,18,14,46,28.00
2009,08,18,14,47,28.10
2009,08,18,14,48,28.20
2009,08,18,14,49,28.20
2009,08,18,14,50,28.20
2009,08,18,14,51,28.20
2009,08,18,14,52,28.30
2009,08,18,14,53,28.30
2009,08,18,14,54,28.40
2009,08,18,14,55,28.40
2009,08,18,14,56,28.50
2009,08,18,14,57,28.60
2009,08,18,14,58,28.60
2009,08,18,14,59,28.70
2009,08,18,15,00,28.70
2009,08,18,15,01,28.80
2009,08,18,15,02,28.80
2009,08,18,15,03,28.90
2009,08,18,15,04,28.90
2009,08,18,15,05,28.90
2009,08,18,15,06,28.80
2009,08,18,15,07,28.80
2009,08,18,15,08,28.80
2009,08,18,15,09,28.80
2009,08,18,15,10,28.80
2009,08,18,15,11,28.80
2009,08,18,15,12,28.70
2009,08,18,15,13,28.70
2009,08,18,15,14,28.80
2009,08,18,15,15,28.80
2009,08,18,15,16,28.90
2009,08,18,15,17,28.90
2009,08,18,15,18,29.00
2009,08,18,15,19,29.00
2009,08,18,15,20,29.10
2009,08,18,15,21,29.00
2009,08,18,15,22,29.00
2009,08,18,15,23,29.00
2009,08,18,15,24,28.90
2009,08,18,15,25,28.90
2009,08,18,15,26,28.90
2009,08,18,15,27,28.90
2009,08,18,15,28,28.90
2009,08,18,15,29,28.90
2009,08,18,15,30,28.90
2009,08,18,15,31,29.00
2009,08,18,15,32,29.10
2009,08,18,15,33,29.10
2009,08,18,15,34,29.20
2009,08,18,15,35,29.30
2009,08,18,15,36,29.40
2009,08,18,15,37,29.40
2009,08,18,15,38,29.40
2009,08,18,15,39,29.40
2009,08,18,15,40,29.40
2009,08,18,15,41,29.40
2009,08,18,15,42,29.40
2009,08,18,15,43,29.40
2009,08,18,15,44,29.40
2009,08,18,15,45,29.30
2009,08,18,15,46,29.30
2009,08,18,15,47,29.40
2009,08,18,15,48,29.40
2009,08,18,15,49,29.40
2009,08,18,15,50,29.50
2009,08,18,15,51,29.60
2009,08,18,15,52,29.60
2009,08,18,15,53,29.70
2009,08,18,15,54,29.80
2009,08,18,15,55,29.90
2009,08,18,15,56,30.00
2009,08,18,15,57,30.10
2009,08,18,15,58,30.20
2009,08,18,15,59,30.30
2009,08,18,16,00,30.30
2009,08,18,16,01,30.40
2009,08,18,16,02,30.40
2009,08,18,16,03,30.40
2009,08,18,16,04,30.40
2009,08,18,16,05,30.40
2009,08,18,16,06,30.40
2009,08,18,16,07,30.30
2009,08,18,16,08,30.20
2009,08,18,16,09,30.10
2009,08,18,16,10,30.10
2009,08,18,16,11,30.10
2009,08,18,16,12,30.10
2009,08,18,16,13,30.10
2009,08,18,16,14,30.00
2009,08,18,16,15,30.00
2009,08,18,16,16,30.10
2009,08,18,16,17,30.10
2009,08,18,16,18,30.10
2009,08,18,16,19,30.10
2009,08,18,16,20,30.00
2009,08,18,16,21,29.90
2009,08,18,16,22,29.90
2009,08,18,16,23,29.70
2009,08,18,16,24,29.60
2009,08,18,16,25,29.50
2009,08,18,16,26,29.40
2009,08,18,16,27,29.40
2009,08,18,16,28,29.40
2009,08,18,16,29,29.40
2009,08,18,16,30,29.40
2009,08,18,16,31,29.50
2009,08,18,16,32,29.60
2009,08,18,16,33,29.60
2009,08,18,16,34,29.60
2009,08,18,16,35,29.50
2009,08,18,16,36,29.50
2009,08,18,16,37,29.50
2009,08,18,16,38,29.60
2009,08,18,16,39,29.60
2009,08,18,16,40,29.70
2009,08,18,16,41,29.70
2009,08,18,16,42,29.70
2009,08,18,16,43,29.70
2009,08,18,16,44,29.70
2009,08,18,16,45,29.70
2009,08,18,16,46,29.70
2009,08,18,16,47,29.60
2009,08,18,16,48,29.60
2009,08,18,16,49,29.60
2009,08,18,16,50,29.60
2009,08,18,16,51,29.70
2009,08,18,16,52,29.70
2009,08,18,16,53,29.70
2009,08,18,16,54,29.80
2009,08,18,16,55,29.80
2009,08,18,16,56,29.80
2009,08,18,16,57,29.80
2009,08,18,16,58,29.80
2009,08,18,16,59,29.80
2009,08,18,17,00,29.80
2009,08,18,17,01,29.80
2009,08,18,17,02,29.80
2009,08,18,17,03,29.80
2009,08,18,17,04,29.70
2009,08,18,17,05,29.60
2009,08,18,17,06,29.60
2009,08,18,17,07,29.60
2009,08,18,17,08,29.70
2009,08,18,17,09,29.70
2009,08,18,17,10,29.70
2009,08,18,17,11,29.70
2009,08,18,17,12,29.80
2009,08,18,17,13,29.80
2009,08,18,17,14,29.80
2009,08,18,17,15,29.90
2009,08,18,17,16,29.90
2009,08,18,17,17,29.90
2009,08,18,17,18,29.90
2009,08,18,17,19,29.90